Nantucket, MA

11:43 PM EDT on August 27, 2016 (GMT -0400)
Nantucket Memorial

Weather History for KACK - October, 2013

Change the Weather History Date:

Wednesday, October 23, 2013

  Actual Average Record
Temperature  
Mean Temperature 50 °F -  
Max Temperature 57 °F 60 °F 71 °F (1971)
Min Temperature 46 °F 45 °F 32 °F (1955)
Degree Days  
Heating Degree Days 14    
Moisture  
Dew Point 43 °F    
Average Humidity 76    
Maximum Humidity 93    
Minimum Humidity 57    
Precipitation  
Precipitation 0.36 in - - ()
Sea Level Pressure  
Sea Level Pressure 29.67 in    
Wind  
Wind Speed 10 mph (North)    
Max Wind Speed 14 mph    
Max Gust Speed -    
Visibility 10 miles    
Events Rain    
Averages and records for this station are not official NWS values.
T = Trace of Precipitation, MM = Missing Value Source: NWS Daily Summary

Daily Weather History Graph

Daily Weather History Graph

Search for Another Location

Airport or City:

Trip Planner

Search our weather history database for the weather conditions in past years. The results will help you decide how hot, cold, wet, or windy it might be!

Date:

Astronomy

Oct. 23, 2013 Rise Set
Actual Time 7:01 AM EDT 5:47 PM EDT
Civil Twilight 6:33 AM EDT 6:15 PM EDT
Nautical Twilight 6:00 AM EDT 6:47 PM EDT
Astronomical Twilight 5:28 AM EDT 7:19 PM EDT
Moon 9:13 PM EDT (10/23) 11:17 AM EDT (10/23)
Length of Visible Light 11h 42m
Length of Day
10h 46m
Waning Gibbous, 79% of the Moon is Illuminated
Oct 23
Waning Gibbous
Oct 26
Last Quarter
Nov 3
New
Nov 10
First Quarter
Nov 17
Full

Hourly Weather History & Observations

Time (EDT) Temp. Windchill Dew Point Humidity Pressure Visibility Wind Dir Wind Speed Gust Speed Precip Events Conditions
12:53 AM 55.0 °F - 45.0 °F 69% 29.78 in 10.0 mi North 11.5 mph - N/A   Clear
1:53 AM 54.0 °F - 41.0 °F 62% 29.78 in 10.0 mi North 11.5 mph - N/A   Clear
2:53 AM 53.1 °F - 39.0 °F 59% 29.79 in 10.0 mi North 12.7 mph - N/A   Partly Cloudy
3:53 AM 53.1 °F - 37.9 °F 57% 29.77 in 10.0 mi North 13.8 mph - N/A   Partly Cloudy
4:53 AM 52.0 °F - 37.9 °F 59% 29.77 in 10.0 mi North 11.5 mph - N/A   Mostly Cloudy
5:53 AM 51.1 °F - 37.0 °F 59% 29.77 in 10.0 mi North 9.2 mph - N/A   Mostly Cloudy
6:53 AM 48.9 °F - 39.0 °F 69% 29.74 in 10.0 mi NNE 8.1 mph - N/A   Clear
7:53 AM 48.9 °F - 39.9 °F 71% 29.75 in 10.0 mi NNE 6.9 mph - N/A   Clear
8:53 AM 52.0 °F - 41.0 °F 66% 29.74 in 10.0 mi NE 5.8 mph - N/A   Clear
9:53 AM 55.0 °F - 42.1 °F 62% 29.73 in 10.0 mi ENE 8.1 mph - N/A   Scattered Clouds
10:53 AM 55.0 °F - 43.0 °F 64% 29.70 in 10.0 mi ENE 8.1 mph - N/A   Overcast
11:53 AM 52.0 °F - 46.9 °F 83% 29.68 in 10.0 mi NE 6.9 mph - 0.00 in Rain Light Rain
12:53 PM 52.0 °F - 48.0 °F 86% 29.64 in 9.0 mi North 8.1 mph - 0.03 in Rain Light Rain
1:53 PM 52.0 °F - 48.9 °F 89% 29.61 in 10.0 mi NNE 8.1 mph - 0.01 in Rain Light Rain
2:53 PM 51.1 °F - 46.0 °F 83% 29.60 in 10.0 mi North 8.1 mph - 0.00 in Rain Light Rain
3:53 PM 50.0 °F - 45.0 °F 83% 29.57 in 10.0 mi NNE 6.9 mph - 0.01 in Rain Light Rain
4:53 PM 50.0 °F - 45.0 °F 83% 29.60 in 8.0 mi North 8.1 mph - 0.01 in Rain Light Rain
5:53 PM 48.9 °F - 45.0 °F 86% 29.57 in 10.0 mi North 11.5 mph - 0.03 in Rain Light Rain
6:53 PM 48.0 °F - 44.1 °F 86% 29.61 in 8.0 mi North 8.1 mph - 0.07 in Rain Rain
7:08 PM 48.2 °F - 44.6 °F 87% 29.61 in 7.0 mi NNW 9.2 mph - 0.02 in Rain Rain
7:53 PM 48.0 °F - 44.1 °F 86% 29.62 in 8.0 mi North 8.1 mph - 0.09 in Rain Rain
8:08 PM 46.4 °F 41.9 °F 44.6 °F 93% 29.61 in 7.0 mi NNW 9.2 mph - 0.03 in Rain Rain
8:53 PM 46.9 °F - 43.0 °F 86% 29.60 in 10.0 mi NNW 11.5 mph - 0.10 in Rain Light Rain
9:53 PM 46.0 °F 41.9 °F 41.0 °F 83% 29.61 in 10.0 mi NNW 8.1 mph - 0.01 in Rain Light Rain
10:12 PM 46.4 °F 41.5 °F 41.0 °F 81% 29.61 in 10.0 mi NNW 10.4 mph - 0.00 in Rain Light Rain
10:53 PM 46.0 °F 42.5 °F 41.0 °F 83% 29.62 in 10.0 mi NNW 6.9 mph - 0.00 in Rain Light Rain
11:53 PM 46.0 °F 43.9 °F 39.9 °F 79% 29.63 in 10.0 mi WNW 4.6 mph - 0.00 in   Overcast